Regional Weather Roundup
Issued by NWS Burlington, VT

Home | Current Version | Previous Version | Text Only | Print | Product List | Glossary On
Versions: 1 2 3 4 5 6 7 8 9 10 11 12 13 14 15 16 17 18 19 20 21 22 23 24 25 26 27 28 29 30 31 32 33 34 35 36 37 38 39 40 41 42 43 44 45 46 47 48 49 50
000
ASUS41 KBTV 261830
RWRBTV
VERMONT REGIONAL WEATHER ROUNDUP
NATIONAL WEATHER SERVICE BURLINGTON VT
200 PM EDT THU MAY 26 2016

NOTE: "FAIR" INDICATES FEW OR NO CLOUDS BELOW 12,000 FEET WITH NO
SIGNIFICANT WEATHER AND/OR OBSTRUCTIONS TO VISIBILITY.

* THESE REPORTS ARE NOT UNDER NWS QUALITY CONTROL AND/OR DO NOT
  REPORT WEATHER SUCH AS PRECIPITATION AND FOG.

VTZ001>019-261900-
_____VERMONT_____


CITY           SKY/WX    TMP DP  RH WIND       PRES   REMARKS
BURLINGTON     PTSUNNY   77  50  38 NW7       30.07F
6HR MIN TEMP:  64; 6HR MAX TEMP:  77;

MONTPELIER     FAIR      77  52  41 MISG      30.12F
6HR MIN TEMP:  60; 6HR MAX TEMP:  77;

MORRISVILLE    FAIR      76  45  33 CALM      30.09F
6HR MIN TEMP:  60; 6HR MAX TEMP:  77;

ST. JOHNSBURY*   N/A     78  43  28 MISG      30.06F
6HR MIN TEMP:  54; 6HR MAX TEMP:  79;

LYNDONVILLE*   FAIR      75  39  27 N5        30.11F
6HR MIN TEMP:  58; 6HR MAX TEMP:  74;

RUTLAND*       FAIR      79  57  46 NE6       30.07F
6HR MIN TEMP:  60; 6HR MAX TEMP:  79;

SPRINGFIELD    FAIR      83  53  35 VRB5      30.05F
6HR MIN TEMP:  61; 6HR MAX TEMP:  84;

HIGHGATE*      FAIR      75  45  33 NW5       30.08F
6HR MIN TEMP:  61; 6HR MAX TEMP:  75;

NEWPORT*       FAIR      71  44  37 E5        30.10F
6HR MIN TEMP:  58; 6HR MAX TEMP:  71;

BENNINGTON     FAIR      81  59  47 CALM      30.07F
6HR MIN TEMP:  63; 6HR MAX TEMP:  82;

MT. MANSFIELD*   N/A     64 N/A N/A NW9         N/A

_____LAKE CHAMPLAIN_____


CITY           SKY/WX    TMP DP  RH WIND       PRES   REMARKS
BURTON ISLAND*   N/A     68  52  56 NW1         N/A
COLCHESTER RF*   N/A     64  50  59 N12         N/A
DIAMOND ISL*     N/A     68  50  52 N12         N/A

$$

NYZ007-026>031-035-052-083-087-261900-
_____NORTHERN NEW YORK_____


CITY           SKY/WX    TMP DP  RH WIND       PRES   REMARKS
PLATTSBURGH    MOSUNNY   74  46  36 VRB3      30.08F
6HR MIN TEMP:  63; 6HR MAX TEMP:  74;

SARANAC LAKE   CLOUDY    79  48  33 VRB5      30.06F
6HR MIN TEMP:  61; 6HR MAX TEMP:  80;

MASSENA        PTSUNNY   76  49  38 NE12      30.06F
6HR MIN TEMP:  62; 6HR MAX TEMP:  77;

OGDENSBURG*    SUNNY     77  55  47 N7        30.02F
POTSDAM*       SUNNY     79  59  50 NE7       30.03F
WATERTOWN      CLOUDY    77  55  46 W3        30.01F
6HR MIN TEMP:  63; 6HR MAX TEMP:  80;

ALBANY         PTSUNNY   84  58  40 CALM      30.05F
6HR MIN TEMP:  66; 6HR MAX TEMP:  84;

GLENS FALLS    MOSUNNY   81  57  43 S8        30.05F
6HR MIN TEMP:  65; 6HR MAX TEMP:  81;


$$
NHZ002-005-011-261900-
_____NEW HAMPSHIRE_____


CITY           SKY/WX    TMP DP  RH WIND       PRES   REMARKS
LEBANON        SUNNY     83  58  42 NE3       30.05F
6HR MIN TEMP:  61; 6HR MAX TEMP:  83;

MT WASHINGTON  PTSUNNY   54  32  43 NW14G26     N/A
6HR MIN TEMP:  42; 6HR MAX TEMP:  55;

PLYMOUTH       FAIR      81  51  35 W7        30.05F
6HR MIN TEMP:  65; 6HR MAX TEMP:  80;

WHITEFIELD     SUNNY     78  44  29 VRB5      30.08F
6HR MIN TEMP:  60; 6HR MAX TEMP:  78;


$$

_____REGIONAL QUEBEC LOCATIONS_____


CITY           SKY/WX    TMP DP  RH WIND       PRES   REMARKS
MONTREAL       PTSUNNY   73  41  31 E6        30.08F
QUEBEC CITY    MOSUNNY   70  45  40 SE6       30.10F
SHERBROOKE     SUNNY     72  36  26 VRB3      30.09F

_____REGIONAL ONTARIO LOCATIONS_____


CITY           SKY/WX    TMP DP  RH WIND       PRES   REMARKS
OTTAWA         PTSUNNY   77  50  38 E10G20    30.05F

______KEY______
VSB  - VISIBILITY IN MILES
WCI  - WIND CHILL INDEX
HX   - HEAT INDEX
$$
NNNN




USA.gov is the U.S. government's official web portal to all federal, state and local government web resources and services.